DeLand, FL

8:32 PM EDT on October 18, 2017 (GMT -0400)
De Land Municipal-Taylor

Weather History for KDED - November, 2012

Change the Weather History Date:

Tuesday, November 6, 2012

  Actual Average Record
Temperature  
Mean Temperature 66 °F -  
Max Temperature 77 °F 77 °F 86 °F (2015)
Min Temperature 55 °F 53 °F 59 °F (2014)
Cooling Degree Days 1    
Growing Degree Days 16 (Base 50)    
Moisture  
Dew Point 56 °F    
Average Humidity 75    
Maximum Humidity 94    
Minimum Humidity 50    
Precipitation  
Precipitation 0.00 in - - ()
Sea Level Pressure  
Sea Level Pressure 29.89 in    
Wind  
Wind Speed 2 mph ()    
Max Wind Speed 13 mph    
Max Gust Speed 21 mph    
Visibility 8.7 miles    
Events      
Averages and records for this station are not official NWS values.
T = Trace of Precipitation, MM = Missing Value Source: Averaged Metar Reports

Daily Weather History Graph

Daily Weather History Graph

Search for Another Location

Airport or City:

Trip Planner

Search our weather history database for the weather conditions in past years. The results will help you decide how hot, cold, wet, or windy it might be!

Date:

Astronomy

Nov. 06, 2012 Rise Set
Actual Time 6:41 AM EST 5:35 PM EST
Civil Twilight 6:17 AM EST 6:00 PM EST
Nautical Twilight 5:48 AM EST 6:28 PM EST
Astronomical Twilight 5:20 AM EST 6:56 PM EST
Moon No Moon Rise 12:37 PM EST (11/6)
Length of Visible Light 11h 42m
Length of Day
10h 53m
Waning Gibbous, 53% of the Moon is Illuminated
Nov 6
Waning Gibbous
Nov 6
Last Quarter
Nov 13
New
Nov 20
First Quarter
Nov 28
Full

Hourly Weather History & Observations

Time (EST) Temp. Dew Point Humidity Pressure Visibility Wind Dir Wind Speed Gust Speed Precip Events Conditions
12:15 AM 60.8 °F 55.4 °F 82% 29.95 in 8.0 mi Calm Calm - N/A   Clear
12:35 AM 60.8 °F 55.4 °F 82% 29.95 in 9.0 mi Calm Calm - N/A   Clear
12:55 AM 59.0 °F 55.4 °F 88% 29.95 in 8.0 mi Calm Calm - N/A   Clear
1:15 AM 59.0 °F 55.4 °F 88% 29.94 in 8.0 mi Calm Calm - N/A   Clear
1:35 AM 59.0 °F 55.4 °F 88% 29.93 in 8.0 mi Calm Calm - N/A   Clear
1:55 AM 57.2 °F 55.4 °F 94% 29.93 in 8.0 mi Calm Calm - N/A   Clear
2:35 AM 57.2 °F 53.6 °F 88% 29.91 in 8.0 mi Calm Calm - N/A   Clear
2:55 AM 57.2 °F 53.6 °F 88% 29.91 in 8.0 mi Calm Calm - N/A   Clear
3:15 AM 57.2 °F 55.4 °F 94% 29.90 in 8.0 mi Calm Calm - N/A   Clear
3:35 AM 57.2 °F 53.6 °F 88% 29.90 in 7.0 mi Calm Calm - N/A   Clear
3:55 AM 57.2 °F 53.6 °F 88% 29.90 in 8.0 mi Calm Calm - N/A   Clear
4:15 AM 55.4 °F 53.6 °F 94% 29.91 in 7.0 mi Calm Calm - N/A   Clear
4:35 AM 55.4 °F 53.6 °F 94% 29.92 in 7.0 mi Calm Calm - N/A   Clear
4:55 AM 57.2 °F 55.4 °F 94% 29.91 in 7.0 mi Calm Calm - N/A   Clear
5:15 AM 57.2 °F 55.4 °F 94% 29.91 in 7.0 mi Calm Calm - N/A   Clear
5:35 AM 57.2 °F 55.4 °F 94% 29.90 in 7.0 mi Calm Calm - N/A   Clear
5:55 AM 57.2 °F 55.4 °F 94% 29.91 in 8.0 mi Calm Calm - N/A   Clear
6:15 AM 57.2 °F 55.4 °F 94% 29.91 in 7.0 mi Calm Calm - N/A   Clear
6:35 AM 57.2 °F 55.4 °F 94% 29.92 in 6.0 mi Calm Calm - N/A   Clear
6:55 AM 57.2 °F 55.4 °F 94% 29.93 in 7.0 mi Calm Calm - N/A   Clear
7:15 AM 57.2 °F 55.4 °F 94% 29.94 in 7.0 mi WNW 4.6 mph - N/A   Clear
7:35 AM 59.0 °F 55.4 °F 88% 29.95 in 7.0 mi West 4.6 mph - N/A   Clear
7:55 AM 60.8 °F 57.2 °F 88% 29.96 in 7.0 mi WNW 8.1 mph - N/A   Clear
8:15 AM 60.8 °F 57.2 °F 88% 29.96 in 8.0 mi NW 8.1 mph - N/A   Clear
8:35 AM 60.8 °F 57.2 °F 88% 29.97 in 8.0 mi NW 8.1 mph - N/A   Clear
8:55 AM 60.8 °F 57.2 °F 88% 29.98 in 7.0 mi Calm Calm - N/A   Scattered Clouds
9:15 AM 60.8 °F 57.2 °F 88% 29.98 in 6.0 mi Calm Calm - N/A   Partly Cloudy
9:55 AM 62.6 °F 59.0 °F 88% 29.94 in 7.0 mi ENE 4.6 mph - N/A   Clear
10:15 AM 64.4 °F 59.0 °F 83% 29.94 in 9.0 mi Calm Calm - N/A   Partly Cloudy
10:35 AM 64.4 °F 59.0 °F 83% 29.93 in 9.0 mi Calm Calm - N/A   Partly Cloudy
10:55 AM 66.2 °F 59.0 °F 78% 29.91 in 7.0 mi Calm Calm - N/A   Partly Cloudy
11:15 AM 69.8 °F 57.2 °F 64% 29.90 in 10.0 mi Calm Calm - N/A   Clear
11:35 AM 69.8 °F 57.2 °F 64% 29.90 in 9.0 mi Calm Calm - N/A   Clear
11:55 AM 71.6 °F 57.2 °F 60% 29.89 in 10.0 mi SSW 5.8 mph - N/A   Clear
12:15 PM 71.6 °F 57.2 °F 60% 29.88 in 9.0 mi SW 4.6 mph - N/A   Clear
12:35 PM 73.4 °F 55.4 °F 53% 29.86 in 10.0 mi SW 6.9 mph - N/A   Clear
12:55 PM 73.4 °F 57.2 °F 57% 29.86 in 9.0 mi SW 11.5 mph 17.3 mph N/A   Clear
1:15 PM 75.2 °F 57.2 °F 53% 29.85 in 9.0 mi WSW 11.5 mph 16.1 mph N/A   Clear
1:35 PM 75.2 °F 57.2 °F 53% 29.84 in 9.0 mi WSW 8.1 mph - N/A   Clear
1:55 PM 75.2 °F 59.0 °F 57% 29.83 in 9.0 mi WSW 9.2 mph 19.6 mph N/A   Clear
2:15 PM 77.0 °F 57.2 °F 50% 29.83 in 9.0 mi SW 12.7 mph 20.7 mph N/A   Partly Cloudy
2:35 PM 75.2 °F 57.2 °F 53% 29.82 in 10.0 mi WSW 10.4 mph - N/A   Clear
2:55 PM 75.2 °F 57.2 °F 53% 29.82 in 10.0 mi WSW 8.1 mph - N/A   Clear
3:15 PM 77.0 °F 57.2 °F 50% 29.82 in 10.0 mi WSW 11.5 mph - N/A   Scattered Clouds
3:35 PM 75.2 °F 57.2 °F 53% 29.82 in 10.0 mi WSW 8.1 mph - N/A   Scattered Clouds
3:55 PM 73.4 °F 57.2 °F 57% 29.83 in 10.0 mi WSW 6.9 mph - N/A   Mostly Cloudy
4:15 PM 73.4 °F 57.2 °F 57% 29.82 in 10.0 mi West 8.1 mph - N/A   Scattered Clouds
4:35 PM 75.2 °F 55.4 °F 50% 29.82 in 10.0 mi West 6.9 mph - N/A   Partly Cloudy
4:55 PM 73.4 °F 55.4 °F 53% 29.82 in 10.0 mi Calm Calm - N/A   Clear
5:15 PM 73.4 °F 57.2 °F 57% 29.83 in 10.0 mi Calm Calm - N/A   Partly Cloudy
5:35 PM 71.6 °F 57.2 °F 60% 29.83 in 10.0 mi Calm Calm - N/A   Partly Cloudy
5:55 PM 69.8 °F 57.2 °F 64% 29.83 in 9.0 mi Calm Calm - N/A   Clear
6:15 PM 69.8 °F 57.2 °F 64% 29.85 in 10.0 mi Calm Calm - N/A   Partly Cloudy
6:35 PM 68.0 °F 57.2 °F 68% 29.85 in 9.0 mi West 4.6 mph - N/A   Partly Cloudy
6:55 PM 64.4 °F 57.2 °F 77% 29.86 in 10.0 mi Calm Calm - N/A   Clear
7:15 PM 66.2 °F 55.4 °F 68% 29.86 in 10.0 mi West 6.9 mph - N/A   Clear
7:35 PM 64.4 °F 53.6 °F 68% 29.87 in 10.0 mi West 5.8 mph - N/A   Clear
7:55 PM 64.4 °F 53.6 °F 68% 29.88 in 10.0 mi Calm Calm - N/A   Clear
8:15 PM 64.4 °F 53.6 °F 68% 29.88 in 9.0 mi West 5.8 mph - N/A   Clear
8:35 PM 64.4 °F 53.6 °F 68% 29.89 in 10.0 mi West 5.8 mph - N/A   Clear
8:55 PM 62.6 °F 53.6 °F 72% 29.89 in 10.0 mi North 6.9 mph - N/A   Clear
9:15 PM 60.8 °F 53.6 °F 77% 29.89 in 10.0 mi West 3.5 mph - N/A   Clear
9:55 PM 60.8 °F 53.6 °F 77% 29.88 in 10.0 mi Calm Calm - N/A   Clear
10:15 PM 60.8 °F 53.6 °F 77% 29.88 in 10.0 mi WNW 3.5 mph - N/A   Clear
10:35 PM 60.8 °F 53.6 °F 77% 29.87 in 10.0 mi Calm Calm - N/A   Clear
10:55 PM 57.2 °F 53.6 °F 88% 29.87 in 10.0 mi Calm Calm - N/A   Clear
11:15 PM 59.0 °F 53.6 °F 82% 29.88 in 10.0 mi West 4.6 mph - N/A   Clear
11:35 PM 59.0 °F 53.6 °F 82% 29.88 in 10.0 mi West 6.9 mph - N/A   Clear
11:55 PM 59.0 °F 53.6 °F 82% 29.88 in 10.0 mi West 5.8 mph - N/A   Clear